This demonstration page uses our WeatherBlox Daily Observations layout. Learn more.

Left ArrowRight Arrow

38.88101, -77.10428

Hourly Observations for May 10, 2016

Temp ( °F °C ) Dew Point ( °F °C ) Humidity (%) Winds ( mph kmh ) Pressure ( in mb ) Visibility ( mi km ) Precip ( " mm )
12:52 am 00:52 Cloudy 59 15 55 12.8 87 87 N N/A 30.11 1020 10 16 N/A
1:52 am 01:52 Cloudy 59 15 55 12.8 87 87 N N/A 30.11 1020 10 16 N/A
2:52 am 02:52 Cloudy 58 14.4 55 12.8 90 90 SSW 3 6 30.12 1020 10 16 N/A
3:52 am 03:52 Cloudy with Light Rain 59 15 56 13.3 90 90 NNE 12 19 30.12 1020 10 16 N/A
4:52 am 04:52 Cloudy 59 15 55 12.8 87 87 N N/A 30.15 1021 10 16 N/A
5:52 am 05:52 Cloudy 59 15 52 11.1 78 78 NE 7 11 30.16 1021 10 16 N/A
6:52 am 06:52 Cloudy 60 15.6 50 10 70 70 E 3 6 30.24 1024 10 16 N/A
7:52 am 07:52 Cloudy with Light Rain 59 15 50 10 72 72 NE 10 17 30.24 1024 10 16 N/A
8:52 am 08:52 Cloudy with Light Rain 58 14.4 50 10 75 75 NE 12 19 30.24 1024 10 16 N/A
9:52 am 09:52 Cloudy 58 14.4 51 10.6 78 78 NE 8 13 30.26 1025 10 16 N/A
10:13 am 10:13 Cloudy 59 15 52 11.1 78 78 ENE 7 11 30.27 1025 10 16 N/A
10:52 am 10:52 Cloudy 58 14.4 52 11.1 81 81 NNE 5 7 30.27 1025 10 16 N/A
11:52 am 11:52 Cloudy 60 15.6 49 9.4 67 67 ESE 10 17 30.26 1025 10 16 N/A
12:52 pm 12:52 Cloudy 62 16.7 50 10 65 65 NE 6 9 30.25 1024 10 16 N/A
1:16 pm 13:16 Cloudy 63 17 48 9 59 59 E 6 9 30.24 1024 10 16 N/A
1:52 pm 13:52 Cloudy 63 17.2 49 9.4 60 60 N 6 9 30.24 1024 10 16 N/A
2:52 pm 14:52 Cloudy 63 17.2 48 8.9 58 58 NE 7 11 30.23 1024 10 16 N/A
3:52 pm 15:52 Mostly Cloudy 65 18.3 49 9.4 56 56 NE 9 15 30.22 1023 10 16 N/A
4:52 pm 16:52 Mostly Cloudy 64 17.8 49 9.4 58 58 NE 8 13 30.21 1023 10 16 N/A
5:52 pm 17:52 Mostly Cloudy 63 17 48 9 59 59 NNE 7 11 30.21 1023 10 16 N/A
6:52 pm 18:52 Mostly Cloudy 62 16.7 49 9.4 62 62 NE 6 9 30.20 1023 10 16 N/A
7:52 pm 19:52 Mostly Cloudy 62 16.7 50 10 65 65 SE 7 11 30.20 1023 10 16 N/A
8:52 pm 20:52 Mostly Cloudy 60 15.6 50 10 70 70 NE 8 13 30.20 1023 10 16 N/A
9:52 pm 21:52 Cloudy 59 15 49 9.4 69 69 NE 9 15 30.22 1023 10 16 N/A
10:52 pm 22:52 Cloudy with Light Rain 58 14.4 50 10 75 75 ENE 9 15 30.20 1023 10 16 N/A
11:33 pm 23:33 Cloudy with Light Rain 57 13.9 50 10 78 78 NE 5 7 30.21 1023 10 16 0.01 0.25
11:52 pm 23:52 Cloudy 57 13.9 51 10.6 81 81 NNE 8 13 30.20 1023 10 16 0.01 0.25

Powered by AerisWeather